Location: Unspecified
(0.0000°N, 0.0000°E)
Time: 12:01:34
(UTC+00:00)

CAPRICORN - Pass Details

Date: 31 October 2019
Orbit: 325 x 40040 km, 64.5° (Epoch: 16 April)

Event Time Altitude Azimuth Distance (km) Brightness Sun altitude
Rises 09:54:11 0° 108° (ESE) 26,542 ? 59.5°
Reaches altitude 10° 10:41:52 10° 97° (E) 32,541 ? 69.2°
Maximum altitude 15:23:50 56° 28° (NNE) 39,802 ? 33.7°
Drops below altitude 10° 19:12:38 10° 3° (N) 18,054 ? -21.5°
Sets 19:28:37 0° 12° (NNE) 15,232 ? -25.4°
